KC7NGC-B Weather Reports


time (UTC)temp
C
wind
direction
speed
KPH
gust
KPH
rain 1hr
cm
rain 24hr
cm
rain mn
cm
humidity
%
barometer
mb
20260902100617 15 205 11.3 20.9 0.00 0.00 0.00 1 1009.1
20260902095634 15 216 11.3 16.1 0.00 0.00 0.00 1 1009.3
20260902094631 16 203 9.7 12.9 0.00 0.00 0.00 1 1009.4
20260902093626 16 205 12.9 19.3 0.00 0.00 0.00 1 1009.0
20260902092622 16 231 9.7 14.5 0.00 0.00 0.00 1 1009.2
20260902091618 16 216 6.4 9.7 0.00 0.00 0.00 1 1009.1
20260902090655 16 212 14.5 20.9 0.00 0.00 0.00 1 1009.4
20260902085651 16 230 12.9 16.1 0.00 0.00 0.00 1 1009.1
20260902084631 16 211 16.1 20.9 0.00 0.00 0.00 1 1009.2
20260902083623 16 210 11.3 17.7 0.00 0.00 0.00 1 1009.2
20260902082619 16 215 12.9 16.1 0.00 0.00 0.00 1 1009.3
20260902081620 17 209 12.9 16.1 0.00 0.00 0.00 1 1009.0
20260902080632 17 214 12.9 17.7 0.00 0.00 0.00 1 1008.9
20260902075629 17 219 9.7 14.5 0.00 0.00 0.00 1 1009.1
20260902074625 17 223 6.4 12.9 0.00 0.00 0.00 1 1008.8
20260902073621 18 211 11.3 17.7 0.00 0.00 0.00 1 1008.7
20260902072617 18 236 8.0 12.9 0.00 0.00 0.00 1 1008.8
20260902071654 18 238 4.8 9.7 0.00 0.00 0.00 1 1008.7
20260902070630 18 230 4.8 8.0 0.00 0.00 0.00 1 1008.7
20260902065627 18 204 9.7 16.1 0.00 0.00 0.00 1 1008.9
20260902064642 18 226 12.9 20.9 0.00 0.00 0.00 1 1008.6
20260902063618 18 211 9.7 12.9 0.00 0.00 0.00 1 1008.5
20260902062635 18 205 11.3 17.7 0.00 0.00 0.00 1 1008.4
20260902060627 19 219 9.7 16.1 0.00 0.00 0.00 1 1007.8
20260902055626 19 214 12.9 20.9 0.00 0.00 0.00 1 1007.9
20260902054620 19 216 12.9 19.3 0.00 0.00 0.00 1 1007.8
20260902053616 19 217 20.9 27.4 0.00 0.00 0.00 1 1007.7
20260902052633 20 215 9.7 16.1 0.00 0.00 0.00 1 1007.8
20260902051629 20 213 14.5 20.9 0.00 0.00 0.00 1 1007.6
20260902050645 20 201 12.9 17.7 0.00 0.00 0.00 1 1007.5
20260902045621 20 217 9.7 14.5 0.00 0.00 0.00 1 1007.5
20260902044617 20 207 9.7 14.5 0.00 0.00 0.00 1 1007.4
20260902043633 20 224 4.8 12.9 0.00 0.00 0.00 1 1007.4
20260902042630 21 213 11.3 16.1 0.00 0.00 0.00 1 1007.0
20260902041626 21 201 12.9 17.7 0.00 0.00 0.00 1 1007.1
20260902040622 21 205 9.7 16.1 0.00 0.00 0.00 1 1007.1
20260902035618 21 215 11.3 17.7 0.00 0.00 0.00 1 1006.9
20260902034634 21 193 11.3 14.5 0.00 0.00 0.00 1 1006.6
20260902033652 22 192 8.0 14.5 0.00 0.00 0.00 1 1006.6
20260902032628 22 183 9.7 12.9 0.00 0.00 0.00 1 1006.3
20260902031623 22 208 9.7 14.5 0.00 0.00 0.00 1 1006.2
20260902030619 23 191 6.4 12.9 0.00 0.00 0.00 1 1006.1
20260902025636 23 181 6.4 9.7 0.00 0.00 0.00 1 1006.1
20260902024712 24 196 4.8 9.7 0.00 0.00 0.00 1 1005.9
20260902023647 25 203 11.3 16.1 0.00 0.00 0.00 1 1005.7
20260902022624 25 190 3.2 4.8 0.00 0.00 0.00 1 1005.9
20260902021621 26 183 3.2 6.4 0.00 0.00 0.00 1 1005.8
20260902020621 26 160 8.0 14.5 0.00 0.00 0.00 1 1005.8
20260902015633 26 98 3.2 8.0 0.00 0.00 0.00 1 1005.9
20260902014629 26 169 3.2 6.4 0.00 0.00 0.00 1 1005.8
20260902013625 26 148 1.6 3.2 0.00 0.00 0.00 1 1005.9
20260902012622 27 174 4.8 6.4 0.00 0.00 0.00 1 1005.9
20260902011617 27 165 4.8 6.4 0.00 0.00 0.00 1 1005.8
20260902010654 27 167 6.4 8.0 0.00 0.00 0.00 1 1006.0
20260902005629 27 154 4.8 9.7 0.00 0.00 0.00 1 1006.0
20260902004626 27 188 6.4 9.7 0.00 0.00 0.00 1 1006.0
20260902003622 27 180 4.8 6.4 0.00 0.00 0.00 1 1006.2
20260902002619 27 189 4.8 6.4 0.00 0.00 0.00 1 1006.2
20260902001635 27 180 6.4 8.0 0.00 0.00 0.00 1 1006.2
20260902000651 28 185 4.8 8.0 0.00 0.00 0.00 1 1006.3
20260901235628 28 33 1.6 3.2 0.00 0.00 0.00 1 1006.2
20260901234624 28 183 4.8 9.7 0.00 0.00 0.00 1 1006.4
20260901233620 28 159 3.2 4.8 0.00 0.00 0.00 1 1006.3
20260901232617 28 202 8.0 9.7 0.00 0.00 0.00 1 1006.4
20260901231632 28 222 4.8 8.0 0.00 0.00 0.00 1 1006.4
20260901230648 28 206 3.2 4.8 0.00 0.00 0.00 1 1006.6
20260901225624 27 231 3.2 6.4 0.00 0.00 0.00 1 1006.6
20260901224620 27 206 4.8 6.4 0.00 0.00 0.00 1 1006.5
20260901223617 27 205 6.4 9.7 0.00 0.00 0.00 1 1006.8
20260901222633 26 210 9.7 14.5 0.00 0.00 0.00 1 1006.8
20260901221629 26 209 8.0 14.5 0.00 0.00 0.00 1 1006.9
20260901220625 26 204 6.4 8.0 0.00 0.00 0.00 1 1007.0
20260901215621 26 185 8.0 14.5 0.00 0.00 0.00 1 1006.9
20260901214617 26 191 6.4 8.0 0.00 0.00 0.00 1 1007.2
20260901213633 26 178 9.7 14.5 0.00 0.00 0.00 1 1007.3
20260901212629 26 193 3.2 6.4 0.00 0.00 0.00 1 1007.4
20260901211625 25 135 0.0 1.6 0.00 0.00 0.00 1 1007.5
20260901210621 25 188 1.6 4.8 0.00 0.00 0.00 1 1007.7
20260901205618 23 193 3.2 6.4 0.00 0.00 0.00 1 1007.9
20260901204634 24 176 8.0 9.7 0.00 0.00 0.00 1 1007.9
20260901203631 23 189 3.2 4.8 0.00 0.00 0.00 1 1008.0
20260901202627 23 182 6.4 9.7 0.00 0.00 0.00 1 1008.2
20260901201623 23 198 9.7 16.1 0.00 0.00 0.00 1 1008.3
20260901200619 24 207 11.3 17.7 0.00 0.00 0.00 1 1008.4
20260901195636 23 204 9.7 14.5 0.00 0.00 0.00 1 1008.7
20260901194632 21 228 6.4 9.7 0.00 0.00 0.00 1 1008.7
20260901193629 22 184 9.7 11.3 0.00 0.00 0.00 1 1008.9
20260901192624 22 184 4.8 9.7 0.00 0.00 0.00 1 1009.0
20260901191621 22 175 4.8 8.0 0.00 0.00 0.00 1 1009.1
20260901190636 22 182 3.2 6.4 0.00 0.00 0.00 1 1008.8
20260901185653 21 172 6.4 9.7 0.00 0.00 0.00 1 1008.8
20260901184630 21 182 4.8 6.4 0.00 0.00 0.00 1 1008.7
20260901183645 21 186 4.8 8.0 0.00 0.00 0.00 1 1008.9
20260901182621 21 206 9.7 16.1 0.00 0.00 0.00 1 1009.0
20260901181617 21 172 11.3 16.1 0.00 0.00 0.00 1 1009.2
20260901180634 21 172 6.4 9.7 0.00 0.00 0.00 1 1008.9
20260901175630 21 205 4.8 8.0 0.00 0.00 0.00 1 1009.0
20260901174626 21 185 8.0 9.7 0.00 0.00 0.00 1 1009.2
20260901173622 21 182 3.2 4.8 0.00 0.00 0.00 1 1009.2
20260901172618 21 112 1.6 3.2 0.00 0.00 0.00 1 1009.3
20260901171634 21 161 3.2 4.8 0.00 0.00 0.00 1 1009.3
20260901170630 21 176 1.6 3.2 0.00 0.00 0.00 1 1009.1
20260901165647 21 0.0 0.0 0.00 0.00 0.00 1 1008.8
20260901164703 20 0.0 0.0 0.00 0.00 0.00 1 1008.9
20260901163619 20 0.0 0.0 0.00 0.00 0.00 1 1009.0
20260901162635 20 48 3.2 3.2 0.00 0.00 0.00 1 1008.9
20260901161651 20 0.0 0.0 0.00 0.00 0.00 1 1009.0
20260901160627 20 121 0.0 1.6 0.00 0.00 0.00 1 1009.1
20260901155624 20 0.0 3.2 0.00 0.00 0.00 1 1009.0
20260901154619 20 54 1.6 3.2 0.00 0.00 0.00 1 1008.8
20260901153619 20 69 1.6 3.2 0.00 0.00 0.00 1 1008.8
20260901152633 19 52 1.6 3.2 0.00 0.00 0.00 1 1008.6
20260901151629 19 44 1.6 3.2 0.00 0.00 0.00 1 1008.7
20260901150625 18 0.0 0.0 0.00 0.00 0.00 1 1008.7
20260901145641 18 0.0 0.0 0.00 0.00 0.00 1 1008.6
20260901144618 17 320 3.2 3.2 0.00 0.00 0.00 1 1008.6
20260901143815 17 342 8.0 8.0 0.00 0.00 0.00 1 1008.5
20260901142631 17 262 0.0 3.2 0.00 0.00 0.00 1 1008.5
20260901141627 17 278 1.6 3.2 0.00 0.00 0.00 1 1008.5
20260901140623 17 190 4.8 6.4 0.00 0.00 0.00 1 1008.3
20260901135639 16 155 1.6 4.8 0.00 0.00 0.00 1 1008.2
20260901134636 16 207 4.8 6.4 0.00 0.00 0.00 1 1008.3
20260901133632 16 0.0 4.8 0.00 0.00 0.00 1 1008.0
20260901132628 16 214 1.6 4.8 0.00 0.00 0.00 1 1008.2
20260901131625 17 202 3.2 4.8 0.00 0.00 0.00 1 1008.3
20260901130620 17 200 3.2 6.4 0.00 0.00 0.00 1 1008.3
20260901125620 17 10 3.2 4.8 0.00 0.00 0.00 1 1008.1
20260901124633 17 0.0 1.6 0.00 0.00 0.00 1 1007.9
20260901123629 17 132 0.0 1.6 0.00 0.00 0.00 1 1007.7
20260901122624 17 270 1.6 3.2 0.00 0.00 0.00 1 1008.1
20260901121641 17 0.0 0.0 0.00 0.00 0.00 1 1007.9
20260901120618 17 329 4.8 6.4 0.00 0.00 0.00 1 1007.9
20260901115634 17 0.0 1.6 0.00 0.00 0.00 1 1008.0
20260901114652 17 285 4.8 6.4 0.00 0.00 0.00 1 1007.9
20260901113627 17 246 1.6 1.6 0.00 0.00 0.00 1 1008.2
20260901112623 17 0.0 1.6 0.00 0.00 0.00 1 1008.0
20260901111621 17 17 0.0 3.2 0.00 0.00 0.00 1 1007.7
20260901110656 17 26 3.2 3.2 0.00 0.00 0.00 1 1007.9
20260901105626 17 326 1.6 1.6 0.00 0.00 0.00 1 1007.8
20260901104622 18 0.0 1.6 0.00 0.00 0.00 1 1008.0
20260901103639 17 324 0.0 1.6 0.00 0.00 0.00 1 1008.1
20260901102635 17 330 1.6 3.2 0.00 0.00 0.00 1 1008.1
20260901101632 18 317 4.8 4.8 0.00 0.00 0.00 1 1008.2